Покровск-Уральский

Россия / Свердловская область     60°08′53″N   59°49′34″E
темп.,
°C
ветер,
м/с
пор.,
м/с
влажн.,
%
обл.,
%
осадки,
мм/ч
давл.,
гПа
погр.,
м
27 февраля, сб
сб2723:00−22ю12100100 0.1 102323
02:00−25ююз1110099 0.0 102120
05:00−26ю1110090 0.0 102119
08:00−27ю1110097 0.0 102019
11:00−22вюв119298 0.0 1020204
14:00−19вюв228696 0.0 1018461
17:00−20в239498 0.1 1018475
20:00−23ссв11100100 0.1 101820
28 февраля, вс
вс2823:00−24ссв1199100 0.2 101921
02:00−25ссв1299100 0.1 101834
05:00−26с2299100 0.1 101853
08:00−26с2299100 0.1 101885
11:00−23ссв2395100 0.2 1017250
14:00−19ссв2493100 0.1 1016388
17:00−19ссв2594100 0.2 1016398
20:00−21с2299100 0.1 101757
1 марта, пн
пн123:00−22ссз2298100 0.3 101943
02:00−23ссз129890 0.0 101921
05:00−24сз119750 0.1 102020
08:00−24зюз11970 0.0 102020
11:00−15ю11870 0.0 1020171
14:00−10ююв22820 0.0 1018417
17:00−10ююв239232 0.0 1017264
20:00−17юз129766 0.0 101721
2 марта, вт
вт223:00−18зюз229238 0.0 101621
02:00−19зюз22900 0.0 101522
05:00−20зюз22910 0.0 101324
08:00−20зюз229210 0.0 101125
11:00−13юз238545 0.0 1009200
14:00−9ююз268098 0.0 1007526
17:00−9ю278699 0.0 1006632
20:00−12ююз2293100 0.0 100652
3 марта, ср
ср323:00−13юз1295100 0.0 100630
02:00−14юз1197100 0.1 100624
05:00−14юз1197100 0.3 100622
08:00−14ююз1197100 0.3 100631
11:00−12ю1191100 0.6 1007290
14:00−10ююв1289100 0.2 1007394
17:00−10ююв2394100 0.6 1007352
20:00−13ююв1297100 0.3 100731